Location: Unspecified
(0.0000°N, 0.0000°E)
Time: 16:18:14
(UTC+00:00)

Vanguard 1 Rocket - Pass Details

Date: 18 January 2020
Orbit: 650 x 4226 km, 34.3° (Epoch: 24 February)

Event Time Altitude Azimuth Distance (km) Brightness Sun altitude
Rises 20:53:26 0° 293° (WNW) 8,462 12.8 -37.7°
Reaches altitude 10° 21:00:01 10° 288° (WNW) 7,313 12.4 -39.2°
Maximum altitude 21:22:07 46° 221° (SW) 3,760 10.6 -44.0°
Drops below altitude 10° 21:35:11 10° 151° (SSE) 4,485 10.9 -46.9°
Sets 21:38:10 0° 143° (SE) 5,097 11.2 -47.5°
